This is the latest recevied weather packets stored in our database for station/object CE3MXM-12. If no packets are shown the sender has not sent any weather packets the latest 1 day(s).
| Time | Temp. | Humidity | Pressure | Rain* | Wind** | Luminosity | Snow |
|---|---|---|---|---|---|---|---|
| 1777996505 | 20° C | 58% | 1011.9 hPa | - | 5.36 m/s, 234° | - | - |
| 1777996205 | 20° C | 59% | 1012 hPa | - | 0.89 m/s, 153° | - | - |
| 1777995905 | 19.44° C | 59% | 1011.7 hPa | - | 3.58 m/s, 312° | - | - |
| 1777995605 | 19.44° C | 60% | 1011.9 hPa | - | 0.89 m/s, 288° | - | - |
| 1777995305 | 20° C | 60% | 1012.1 hPa | - | 0 m/s | - | - |
| 1777995005 | 20° C | 60% | 1012 hPa | - | 2.24 m/s, 150° | - | - |
| 1777994705 | 20° C | 61% | 1012.1 hPa | - | 0.89 m/s, 319° | - | - |
| 1777994404 | 19.44° C | 61% | 1012 hPa | - | 2.68 m/s, 112° | - | - |
| 1777994104 | 20° C | 60% | 1012.2 hPa | - | 4.92 m/s, 244° | - | - |
| 1777993804 | 20° C | 60% | 1012.3 hPa | - | 0.45 m/s, 300° | - | - |
| 1777993504 | 20° C | 60% | 1012.4 hPa | - | 2.68 m/s, 148° | - | - |
| 1777993205 | 20° C | 60% | 1012.5 hPa | - | 0.45 m/s, 304° | - | - |
| 1777992904 | 20.56° C | 59% | 1012.3 hPa | - | 2.24 m/s, 308° | - | - |
| 1777992604 | 20° C | 61% | 1012.3 hPa | - | 0.45 m/s, 165° | - | - |
| 1777992304 | 20° C | 60% | 1012.6 hPa | - | 3.13 m/s, 98° | - | - |
| 1777992004 | 20° C | 60% | 1012.3 hPa | - | 0.89 m/s, 346° | - | - |
| 1777991704 | 20° C | 61% | 1012.5 hPa | - | 1.34 m/s, 27° | - | - |
| 1777991403 | 20° C | 59% | 1012.5 hPa | - | 0.89 m/s, 142° | - | - |
| 1777991105 | 20° C | 59% | 1012.6 hPa | - | 2.68 m/s, 298° | - | - |
| 1777990803 | 19.44° C | 59% | 1012.7 hPa | - | 2.68 m/s, 193° | - | - |
| 1777990504 | 19.44° C | 59% | 1012.6 hPa | - | 1.79 m/s, 316° | - | - |
| 1777990203 | 19.44° C | 59% | 1012.7 hPa | - | 1.34 m/s, 330° | - | - |
| 1777989903 | 18.89° C | 59% | 1012.7 hPa | - | 0 m/s | - | - |
| 1777989604 | 18.89° C | 58% | 1012.6 hPa | - | 2.68 m/s, 150° | - | - |
| 1777989303 | 18.89° C | 57% | 1012.7 hPa | - | 1.79 m/s, 162° | - | - |
* Rain since midnight (hover to see other rain measurements)
** Current wind speed in m/s (hover to see current wind gust speed)